Vertical_Velocity
1 -2 6 -4 -6 -1 2 1 -1 1 -1 -2 -2 -0 -4 -1 -0 2 5 -1 -0 0 3 2 -1 1 0 -3 -3 0 -2 -1 -3 -3 1 5 5 -1 -2 -1 -3 0 4 -0 -0
4 6 -9 4 -1 -7 3 -0 -0 2 0 -3 -2 1 -2 -4 -4 6 3 -2 -1 2 4 -1 -2 2 1 -3 -3 -2 -1 1 5 5 -9 10 5 2 -1 -1 -4 3 1 -3 -1
-9 16 6 4 -3 -4 4 -1 -1 -0 4 -2 -1 -1 -1 -3 -6 1 2 -0 -3 2 3 2 0 1 2 -2 -0 0 -3 9 -7 0 3 -7 6 1 -0 1 1 -4 2 2 -6
-5 19 6 -2 -2 3 -0 2 -4 -0 2 3 -3 -2 -3 1 -6 1 1 3 -1 1 4 4 -0 0 4 0 4 -12 3 4 -4 2 -9 2 3 -1 3 -3 0 0 3 2 2
-10 5 4 -4 -2 -3 -1 3 -1 0 1 1 0 -0 -2 -9 11 -4 -4 0 0 2 1 3 1 -0 5 4 -1 -8 1 5 6 -3 3 3 -0 -1 2 7 -5 -1 1 -5 -1
9 -3 2 -2 -3 0 2 -0 4 0 -1 1 0 -0 -3 -13 3 -3 -1 -1 0 -1 4 -2 8 1 2 -0 1 -3 -3 -7 -6 2 5 2 -1 0 2 4 1 0 -2 -0 -4
-19 -0 3 -2 -2 -0 -6 1 -1 2 -2 0 1 -2 -8 16 -10 -4 3 2 1 0 4 10 2 3 -7 2 -2 -6 -11 -4 5 4 -5 2 -8 -8 4 3 5 -1 0 -2 -6
6 -3 1 -3 -1 5 0 1 -2 3 -4 1 1 -4 -20 14 -7 7 -10 6 3 2 2 12 -3 -2 0 -1 -4 -3 -2 -9 10 5 1 7 -21 0 4 2 0 1 -0 2 -6
-1 0 -3 -0 5 -5 -12 3 -1 -2 -2 -3 -0 -2 -11 -0 -1 2 -0 7 5 1 3 10 -0 -2 3 -1 -1 -4 -5 -1 -1 -2 -2 3 -6 4 2 -0 2 -4 -4 6 2
0 2 -0 -3 4 -1 -4 -2 7 1 4 -1 -6 1 -1 7 2 3 -1 8 2 4 5 4 0 -3 -3 2 -14 -6 -2 -4 -8 -5 -5 3 -13 1 3 -1 0 -3 -6 -5 7
-1 -2 -3 -4 -2 -2 -0 1 2 -3 3 -1 -10 -4 2 -0 1 5 4 6 4 2 -1 3 -7 -18 -6 3 10 6 1 -3 -2 7 -6 0 2 5 -3 -5 -3 -0 -1 -2 -3
1 -0 -1 -2 -3 -3 1 -1 -1 -1 -17 -8 -1 -24 4 10 -5 8 3 6 -2 -5 6 -0 -24 6 6 1 0 8 4 -8 -8 -0 3 7 -2 4 -5 -4 -0 3 -2 -3 1
-1 1 -2 -3 -2 -3 0 4 2 -2 -12 1 4 -25 6 17 -17 2 -1 5 3 3 -2 -0 3 -1 1 4 -3 1 1 -6 -1 6 -8 1 -2 -6 -2 -6 -3 -4 4 -5 -3
-1 -0 -0 -2 -3 0 -2 3 1 -3 -7 -14 -3 -22 1 6 -26 7 -3 4 4 -8 10 5 3 5 -1 -3 8 -5 2 3 -1 11 -3 12 -10 -4 -5 -0 -8 -4 1 -0 0
-1 1 0 -2 -0 3 -4 3 3 -6 1 1 0 -6 5 3 -10 -3 12 10 -11 -3 5 -25 7 1 1 -15 10 -32 8 3 6 0 16 3 4 -14 -1 -9 -4 -6 -2 1 -0
1 1 -6 1 -1 5 -1 2 1 1 -16 4 5 2 1 4 -1 4 2 12 10 11 7 -2 5 -1 -7 6 13 7 -1 5 -3 8 7 -7 10 -10 -7 -5 -11 -7 -3 -3 2
0 -0 -8 -4 15 -6 6 3 4 4 4 7 7 5 8 4 4 5 -1 1 -8 7 6 2 1 -1 1 0 6 6 6 -3 0 4 -7 -2 8 -19 -6 -3 -5 -3 -8 -6 1
-3 -1 -6 -0 4 -3 8 6 10 4 -10 5 5 7 8 1 1 0 6 6 7 7 5 -1 -2 2 -11 -11 -3 2 5 -6 -3 -2 -6 5 -3 -14 -6 4 -3 -1 -1 -2 -10
-2 3 -10 5 3 1 9 8 -2 -5 9 -0 3 -1 8 4 0 10 7 1 2 -2 -6 -3 -4 -3 -1 2 14 -24 3 -4 11 4 3 -4 -4 -3 0 -8 0 -6 -2 -6 2
-4 2 -12 6 3 -1 7 -8 -2 -0 -11 -1 0 1 -1 7 4 5 5 6 -0 8 9 -6 3 -2 7 11 8 -1 6 4 3 -1 -1 -1 -1 -10 -4 -10 1 -6 -7 -6 1
5 12 -7 7 10 3 -10 -8 -11 -20 0 -3 5 -6 1 -1 3 -1 6 6 5 1 -1 7 13 -15 8 8 -0 5 -4 7 9 11 -2 -1 -13 -10 -15 -2 3 -3 -4 -7 -5
12 10 2 1 5 -6 4 -2 4 2 -1 -6 -3 -1 -6 3 -5 -1 1 11 6 0 -5 5 5 -1 -14 -5 3 6 3 15 14 -9 -1 3 -31 -6 -5 -4 -4 7 -8 6 -7
6 8 -0 8 -18 -5 7 3 -2 -7 2 2 2 7 -7 -0 -4 -6 6 7 1 2 -1 5 9 -3 -18 -5 7 -1 -3 2 7 6 -6 7 -22 -2 -9 -6 -4 1 -12 2 -2
12 9 8 -0 6 10 1 -2 -6 -1 -3 2 -5 0 2 1 6 -1 6 7 2 -3 -5 -6 -0 -3 -1 -0 10 -2 -2 17 1 14 -7 -13 -11 -5 -2 -10 -5 -6 3 -0 -7
-2 -8 -1 -1 -0 4 2 -2 -2 -4 -2 3 -6 -1 1 -0 1 -8 -6 -1 -5 -2 -16 8 -8 2 4 1 -1 0 -4 -6 12 17 4 -15 -6 -15 -2 -9 1 -1 5 1 -13
-11 5 6 4 4 2 -6 -12 17 3 -4 -8 -4 -4 1 2 -2 -13 2 6 3 4 -5 2 -23 -2 -10 1 -11 -19 -7 8 5 3 4 10 -0 -3 -4 2 4 -6 9 -4 1
7 6 7 -3 -5 2 9 -9 -8 -2 -4 2 -1 5 -0 -5 10 5 5 -4 1 1 -0 1 -4 -3 -9 3 0 -13 6 -5 -5 -4 10 2 -8 -1 0 5 -0 -5 3 4 -1
Height
3120 3119 3119 3118 3117 3117 3117 3116 3116 3115 3117 3116 3116 3116 3116 3116 3119 3118 3118 3119 3118 3117 3117 3117 3117 3117 3116 3116 3118 3119 3119 3117 3116 3116 3115 3113 3110 3108 3106 3103 3099 3095 3091 3087 3085
3114 3114 3113 3112 3112 3111 3111 3111 3110 3109 3111 3111 3110 3112 3112 3112 3114 3115 3116 3115 3114 3113 3114 3114 3115 3115 3116 3116 3117 3117 3117 3115 3115 3114 3114 3112 3109 3106 3104 3100 3097 3093 3089 3085 3083
3109 3107 3106 3106 3107 3105 3107 3105 3105 3104 3104 3105 3105 3106 3107 3109 3110 3110 3111 3112 3112 3111 3111 3111 3112 3113 3115 3115 3116 3115 3114 3114 3111 3112 3110 3108 3107 3104 3101 3098 3094 3092 3087 3083 3081
3102 3101 3100 3100 3099 3099 3102 3101 3099 3099 3098 3098 3099 3101 3102 3104 3108 3106 3107 3108 3109 3109 3108 3109 3110 3110 3112 3114 3114 3113 3112 3111 3110 3110 3108 3106 3105 3102 3098 3096 3093 3090 3084 3082 3079
3094 3093 3094 3093 3093 3093 3094 3096 3092 3095 3093 3092 3092 3094 3096 3098 3101 3103 3102 3104 3106 3106 3106 3106 3107 3108 3109 3111 3110 3109 3109 3109 3108 3108 3106 3105 3103 3101 3097 3094 3091 3087 3084 3077 3074
3087 3089 3086 3086 3086 3086 3087 3090 3086 3090 3087 3086 3086 3086 3089 3092 3094 3096 3096 3098 3100 3102 3102 3102 3104 3105 3106 3107 3107 3106 3106 3106 3106 3106 3105 3103 3101 3099 3095 3092 3089 3087 3082 3078 3076
3082 3083 3082 3081 3082 3080 3080 3081 3082 3083 3081 3080 3080 3080 3082 3088 3087 3089 3091 3093 3094 3097 3098 3099 3099 3100 3102 3103 3105 3105 3104 3103 3105 3104 3104 3102 3098 3095 3093 3090 3088 3086 3082 3079 3078
3076 3078 3077 3076 3075 3074 3075 3074 3078 3076 3075 3074 3074 3073 3073 3080 3081 3083 3084 3088 3090 3092 3094 3096 3094 3095 3097 3101 3102 3102 3102 3101 3101 3102 3102 3100 3094 3094 3092 3089 3087 3086 3084 3080 3079
3072 3072 3071 3069 3068 3069 3070 3068 3070 3069 3069 3068 3068 3068 3068 3072 3075 3075 3078 3081 3084 3087 3090 3090 3090 3092 3094 3096 3099 3099 3098 3098 3098 3100 3097 3096 3092 3092 3090 3088 3085 3085 3084 3083 3080
3064 3064 3065 3064 3063 3062 3064 3065 3062 3061 3061 3061 3061 3066 3067 3068 3068 3068 3070 3075 3077 3082 3084 3085 3086 3086 3089 3091 3091 3093 3095 3096 3096 3097 3096 3094 3091 3091 3088 3087 3085 3084 3083 3082 3082
3057 3057 3057 3059 3058 3058 3059 3057 3058 3054 3052 3055 3054 3056 3060 3060 3062 3064 3064 3067 3070 3074 3076 3081 3081 3075 3081 3088 3090 3091 3092 3093 3093 3093 3092 3088 3089 3090 3088 3086 3084 3083 3082 3081 3081
3051 3050 3051 3054 3055 3053 3052 3049 3049 3045 3043 3044 3047 3047 3054 3057 3057 3059 3061 3063 3063 3067 3072 3076 3069 3075 3082 3084 3086 3088 3088 3089 3089 3090 3089 3086 3085 3086 3085 3084 3083 3082 3082 3081 3080
3045 3045 3046 3049 3050 3051 3049 3046 3043 3039 3038 3033 3040 3039 3044 3047 3048 3055 3058 3058 3059 3062 3065 3065 3069 3073 3077 3080 3082 3083 3084 3085 3087 3085 3085 3084 3084 3083 3082 3081 3079 3079 3079 3079 3079
3039 3039 3041 3044 3047 3046 3045 3043 3042 3038 3037 3026 3028 3030 3032 3034 3034 3048 3052 3055 3055 3056 3062 3064 3068 3067 3071 3073 3077 3078 3082 3083 3083 3083 3081 3080 3080 3079 3079 3078 3076 3076 3076 3078 3079
3034 3034 3036 3039 3041 3042 3041 3041 3040 3042 3041 3027 3022 3023 3022 3025 3033 3034 3046 3046 3048 3053 3056 3055 3059 3063 3067 3068 3073 3074 3078 3080 3079 3077 3077 3075 3076 3074 3075 3074 3073 3073 3074 3076 3077
3028 3029 3031 3035 3037 3035 3039 3039 3041 3046 3031 3022 3021 3020 3021 3022 3025 3029 3032 3040 3047 3050 3052 3055 3058 3061 3063 3066 3070 3074 3074 3074 3074 3073 3071 3070 3070 3068 3070 3071 3071 3070 3071 3072 3075
3022 3023 3026 3029 3032 3031 3035 3038 3042 3034 3024 3023 3021 3020 3021 3022 3022 3024 3027 3031 3038 3044 3044 3051 3050 3055 3060 3062 3064 3067 3070 3072 3070 3067 3063 3066 3065 3062 3064 3065 3066 3067 3068 3069 3071
3016 3018 3020 3024 3025 3027 3030 3035 3030 3020 3021 3020 3018 3019 3021 3022 3022 3025 3027 3030 3035 3038 3041 3044 3047 3049 3051 3053 3056 3060 3064 3066 3066 3065 3061 3061 3057 3057 3059 3061 3061 3061 3062 3064 3067
3010 3012 3014 3019 3019 3022 3026 3023 3017 3018 3020 3018 3019 3020 3021 3021 3022 3025 3028 3030 3032 3034 3040 3041 3041 3044 3046 3050 3055 3054 3056 3062 3060 3058 3059 3055 3052 3053 3055 3056 3056 3056 3056 3058 3060
3004 3006 3006 3012 3013 3016 3016 3008 3012 3017 3019 3019 3019 3020 3020 3021 3022 3023 3026 3028 3029 3033 3036 3038 3039 3040 3043 3045 3046 3050 3056 3057 3056 3059 3058 3048 3046 3046 3049 3051 3052 3052 3052 3054 3056
2998 2997 2996 3005 3007 3007 3001 3001 3007 3014 3018 3020 3017 3019 3020 3021 3021 3021 3024 3027 3027 3028 3029 3033 3035 3036 3039 3039 3043 3048 3047 3050 3053 3052 3049 3048 3040 3041 3043 3045 3046 3047 3049 3052 3052
2989 2988 2990 2997 3000 2994 2991 2996 3006 3008 3011 3014 3016 3017 3019 3020 3020 3022 3022 3024 3024 3026 3027 3028 3027 3028 3030 3037 3040 3042 3043 3046 3044 3045 3042 3039 3029 3039 3040 3043 3043 3045 3046 3048 3050
2979 2981 2984 2988 2985 2981 2988 2992 2999 3003 3007 3009 3012 3012 3015 3017 3021 3019 3021 3023 3023 3024 3027 3028 3027 3026 3027 3032 3033 3032 3035 3039 3040 3041 3032 3038 3025 3034 3037 3040 3040 3041 3041 3043 3045
2973 2974 2975 2974 2973 2978 2984 2988 2991 2995 3000 3005 3006 3009 3011 3011 3015 3017 3019 3020 3020 3022 3025 3026 3027 3029 3029 3029 3031 3029 3030 3033 3036 3032 3031 3023 3027 3030 3033 3034 3037 3038 3038 3039 3042
2961 2959 2961 2961 2963 2971 2978 2981 2983 2988 2993 2999 3000 3004 3009 3010 3011 3014 3016 3018 3020 3021 3022 3025 3025 3025 3026 3028 3026 3023 3023 3023 3022 3022 3021 3021 3021 3026 3028 3030 3031 3032 3033 3034 3036
2948 2948 2953 2955 2961 2967 2968 2963 2976 2985 2990 2990 2995 3001 3004 3004 3010 3014 3013 3016 3018 3018 3020 3020 3020 3021 3017 3022 3023 3018 3016 3017 3017 3018 3016 3017 3014 3022 3024 3024 3025 3026 3028 3028 3030
2936 2941 2947 2949 2952 2953 2950 2967 2972 2980 2983 2988 2994 2999 2999 3001 3004 3005 3005 3009 3012 3014 3015 3016 3017 3017 3016 3016 3014 3013 3013 3011 3011 3011 3012 3010 3013 3018 3017 3019 3020 3020 3021 3022 3023